[[{"header":{"parameterUnit":"m.s-1","parameterCategory":1,"la1":30.2991,"la2":30.254,"lo1":-89.0895,"lo2":-89.0444,"dy":0.0017,"dx":0.0017,"nx":28,"ny":28,"refTime":"2024-09-03T09:00:00:Z","depth":0,"parameterNumber":2,"parameterNumberName":"U-component_of_WINDS"},"data":[0,0,0,0,0,0,0,0,0,0,0,0,0,0,0,0,0,0,0,0,0,0,0,0,0,0,0,0,0,0,0,0,0,0,0,0,0,0,0,0,0,0,0,0,0,0,0,0,0,0,0,0,0,0,0,0,0,0,-1.9242,-1.9242,0,-1.9274,-1.9275,-1.9275,-1.9204,-1.9202,-1.92,-1.9197,-1.9234,-1.9237,-1.924,0,0,0,0,0,0,0,0,0,0,0,0,0,-1.912,-1.9123,-1.9242,-1.9242,-1.9243,-1.9274,-1.9275,-1.9275,-1.9205,-1.9202,-1.9199,-1.9196,-1.9233,-1.9236,-1.924,0,0,0,0,0,0,0,0,0,0,0,0,0,-1.9165,-1.9123,-1.9242,-1.9211,-1.9209,-1.9274,-1.9275,-1.9275,-1.9205,-1.9202,-1.9198,-1.9195,-1.9232,-1.9236,-1.9241,-1.9338,0,0,-1.9255,-1.9257,0,0,0,0,0,0,0,0,-1.9162,-1.9169,-1.9215,-1.9213,-1.9211,-1.9232,-1.9245,-1.9297,-1.9206,-1.9207,-1.9197,-1.9193,-1.9236,-1.924,-1.9254,-1.934,-1.9342,-1.9255,-1.9258,-1.926,-1.9261,0,0,0,0,0,0,0,-1.9159,-1.9168,-1.9255,-1.9216,-1.9213,-1.9196,-1.9199,-1.9255,-1.924,-1.9206,-1.9201,-1.9206,-1.9234,-1.925,-1.9254,-1.9342,-1.9255,-1.9259,-1.9262,-1.9264,-1.9509,-1.9513,0,0,0,0,0,0,-1.916,-1.9166,-1.9254,-1.9256,-1.9178,-1.9201,-1.9204,-1.9229,-1.924,-1.9238,-1.9209,-1.9202,-1.9243,-1.9249,-1.9255,-1.937,-1.926,-1.9264,-1.9267,-1.9506,-1.951,-1.9514,0,0,0,0,0,0,-1.9158,-1.9168,-1.9252,-1.9209,-1.9219,-1.9207,-1.9235,-1.9231,-1.9246,-1.9241,-1.9239,-1.9227,-1.9241,-1.9249,-1.9318,-1.937,-1.9267,-1.9271,-1.9501,-1.9507,-1.9512,-1.9601,0,0,0,0,0,0,-1.9154,-1.9168,-1.9205,-1.9211,-1.9221,-1.9315,-1.9238,-1.9234,-1.9254,-1.9246,-1.9258,-1.9257,-1.9239,-1.9311,-1.9323,-1.9375,-1.9274,-1.9496,-1.9504,-1.951,-1.9594,-1.9609,-1.9622,0,0,0,0,0,-1.915,-1.923,-1.9207,-1.9218,-1.9267,-1.9318,-1.9324,-1.9301,-1.9259,-1.9296,-1.9292,-1.9256,-1.9362,-1.9319,-1.9331,-1.9386,-1.9493,-1.9502,-1.951,-1.9587,-1.9606,-1.9622,0,0,0,0,0,0,-1.9232,-1.923,-1.9205,-1.9288,-1.9304,-1.9306,-1.9352,-1.9322,-1.935,-1.9342,-1.9313,-1.9316,-1.9391,-1.9395,-1.9346,-1.948,-1.9421,-1.9432,-1.9475,-1.9493,-1.9508,-1.9506,-1.9278,0,0,0,0,0,-1.9259,-1.93,-1.9296,-1.937,-1.9379,-1.9364,-1.9385,-1.9366,-1.9381,-1.9388,-1.9389,-1.9406,-1.9443,-1.9468,-1.9502,-1.9593,-1.9595,-1.9636,-1.9651,-1.9663,-1.9673,-1.9721,-1.974,-1.9542,-1.9541,-1.9541,0,0,-1.9317,-1.9321,-1.9349,-1.9387,-1.9396,-1.9439,-1.937,-1.9419,-1.9451,-1.9395,-1.9461,-1.9462,-1.9479,-1.9559,-1.9595,-1.9565,-1.9728,-1.9673,-1.9683,-1.9687,-1.9732,-1.9751,-1.9767,-1.9547,-1.9546,-1.9545,0,0,-1.9445,-1.9451,-1.9513,-1.9524,-1.9538,-1.9528,-1.9543,-1.9549,-1.9548,-1.9612,-1.9571,-1.9608,-1.9673,-1.9686,-1.9701,-1.9831,-1.9799,-1.9843,-1.992,-1.9967,-1.9982,-1.9996,-2.0043,-2.006,-1.9853,-1.9854,-1.9854,0,-1.9515,-1.9578,-1.955,-1.9601,-1.9619,-1.9568,-1.9631,-1.9643,-1.9669,-1.9682,-1.9648,-1.9727,-1.9734,-1.9817,-1.9848,-1.9862,-1.9879,-1.9843,-1.9982,-1.9996,-2.0008,-2.0052,-2.007,-1.9859,-1.9858,-1.9858,-1.9857,0,-1.9664,-1.9708,-1.9756,-1.9781,-1.9804,-1.9861,-1.9841,-1.9868,-1.9846,-1.9839,-1.9905,-1.9912,-1.9946,-1.9964,-1.9944,-2.0044,-2.0025,-1.9987,-1.9926,-2.0033,-2.0074,-2.0091,-1.9866,-1.9865,-1.9863,-1.9862,0,0,-1.9846,-1.9852,-1.9871,-1.9881,-1.9892,-1.9926,-1.998,-2.0012,-2.0036,-2.0054,-2.01,-2.0154,-2.0118,-2.0136,-2.0116,-2.0157,-2.026,-2.0114,-2.0114,-2.0142,-2.037,-2.04,-2.042,-2.0238,-2.0241,-2.0243,-2.0369,0,-1.9973,-2.0065,-2.004,-2.0133,-2.0173,-2.0125,-2.0172,-2.0184,-2.0179,-2.0212,-2.0206,-2.0245,-2.0195,-2.0205,-2.0244,-2.024,-2.0306,-2.023,-2.028,-2.0283,-2.0279,-2.0441,-2.0473,-2.0591,-2.0385,-2.0388,-2.039,0,-2.0133,-2.0157,-2.0253,-2.0256,-2.0272,-2.0315,-2.0342,-2.0374,-2.0387,-2.038,-2.0398,-2.037,-2.0423,-2.0361,-2.0435,-2.0384,-2.0402,-2.0403,-2.0407,-2.0412,-2.0344,-2.0451,-2.0628,-2.0647,-2.0415,-2.0413,-2.0411,0,-2.0257,-2.0313,-2.0377,-2.0387,-2.0393,-2.0424,-2.0428,-2.0437,-2.0457,-2.048,-2.0493,-2.0523,-2.054,-2.0563,-2.0543,-2.05,-2.062,-2.0556,-2.0616,-2.0617,-2.0645,-2.0644,-2.0829,-2.0656,-2.0656,-2.0655,-2.0655,0,-2.0402,-2.0463,-2.0433,-2.0473,-2.054,-2.051,-2.0577,-2.0575,-2.0583,-2.0622,-2.0582,-2.0619,-2.059,-2.0625,-2.061,-2.0673,-2.0681,-2.0677,-2.0673,-2.0681,-2.0682,-2.0694,-2.0686,-2.066,-2.0659,-2.0658,-2.0657,0,-2.0553,-2.0535,-2.0602,-2.0601,-2.0602,-2.0651,-2.065,-2.0687,-2.0678,-2.0727,-2.0737,-2.0723,-2.0762,-2.0744,-2.0785,-2.0774,-2.0856,-2.084,-2.0852,-2.0848,-2.0909,-2.0904,-2.1109,-2.1134,-2.0944,-2.0946,-2.0948,0,-2.0647,-2.0692,-2.0696,-2.0718,-2.0724,-2.0761,-2.0781,-2.0753,-2.0776,-2.0792,-2.0828,-2.0862,-2.0889,-2.0954,-2.0947,-2.0978,-2.0963,-2.1032,-2.0967,-2.0974,-2.0965,-2.0963,-2.0967,-2.1046,-2.1049,-2.105,-2.1052,0,-2.0816,-2.0804,-2.0834,-2.0861,-2.0886,-2.0906,-2.0922,-2.0943,-2.0915,-2.0943,-2.0981,-2.1002,-2.1042,-2.1078,-2.1104,-2.1108,-2.1076,-2.1072,-2.1087,-2.1098,-2.1103,-2.1101,-2.0888,-2.1068,-2.1066,-2.1065,-2.1064,-2.1064,-2.0942,-2.098,-2.0987,-2.1022,-2.1031,-2.1047,-2.1081,-2.1075,-2.1106,-2.1136,-2.1118,-2.1163,-2.1173,-2.1205,-2.1213,-2.1248,-2.1221,-2.1244,-2.1249,-2.1256,-2.1264,-2.1096,-2.1253,-2.1253,-2.1252,-2.1252,-2.1251,0,-2.111,-2.1111,-2.1143,-2.1167,-2.1194,-2.1158,-2.1174,-2.1199,-2.1239,-2.1251,-2.1277,-2.1321,-2.1354,-2.1349,-2.138,-2.1409,-2.1395,-2.1418,-2.1416,-2.1418,-2.1287,-2.127,-2.1429,-2.1429,-2.1429,-2.1429,-2.1429,-2.1429,-2.12,-2.1262,-2.1251,-2.1317,-2.1318,-2.1361,-2.1373,-2.1388,-2.1397,-2.1447,-2.1474,-2.147,-2.1475,-2.1505,-2.1534,-2.1532,-2.1545,-2.1574,-2.1567,-2.1445,-2.1427,-2.141,-2.1395,-2.1577,-2.1577,-2.1695,-2.1696,-2.1697]},{"header":{"parameterUnit":"m.s-1","parameterCategory":1,"la1":30.2991,"la2":30.254,"lo1":-89.0895,"lo2":-89.0444,"dy":0.0017,"dx":0.0017,"nx":28,"ny":28,"refTime":"2024-09-03T09:00:00:Z","depth":0,"parameterNumber":3,"parameterNumberName":"V-component_of_WINDS"},"data":[0,0,0,0,0,0,0,0,0,0,0,0,0,0,0,0,0,0,0,0,0,0,0,0,0,0,0,0,0,0,0,0,0,0,0,0,0,0,0,0,0,0,0,0,0,0,0,0,0,0,0,0,0,0,0,0,0,0,-3.3185,-3.3186,0,-3.3197,-3.3197,-3.3197,-3.3155,-3.3154,-3.3153,-3.3151,-3.3162,-3.3164,-3.3165,0,0,0,0,0,0,0,0,0,0,0,0,0,-3.3126,-3.3127,-3.3185,-3.3186,-3.3186,-3.3197,-3.3197,-3.3197,-3.3155,-3.3154,-3.3152,-3.3151,-3.3162,-3.3164,-3.3165,0,0,0,0,0,0,0,0,0,0,0,0,0,-3.3146,-3.3128,-3.3185,-3.3166,-3.3165,-3.3197,-3.3197,-3.3197,-3.3156,-3.3154,-3.3152,-3.315,-3.3161,-3.3163,-3.3166,-3.3217,0,0,-3.3172,-3.3173,0,0,0,0,0,0,0,0,-3.3145,-3.3148,-3.3169,-3.3168,-3.3166,-3.3173,-3.318,-3.3204,-3.3156,-3.3159,-3.3151,-3.3149,-3.3167,-3.3169,-3.3175,-3.3217,-3.3218,-3.3172,-3.3174,-3.3175,-3.3175,0,0,0,0,0,0,0,-3.3144,-3.3147,-3.319,-3.3169,-3.3167,-3.3156,-3.3157,-3.3184,-3.3173,-3.3159,-3.3156,-3.3157,-3.3166,-3.3173,-3.3175,-3.3218,-3.3172,-3.3174,-3.3176,-3.3177,-3.3301,-3.3302,0,0,0,0,0,0,-3.3145,-3.3147,-3.319,-3.319,-3.3151,-3.3159,-3.316,-3.3172,-3.3173,-3.3171,-3.3159,-3.3155,-3.317,-3.3173,-3.3175,-3.3234,-3.3175,-3.3177,-3.3178,-3.3299,-3.3301,-3.3303,0,0,0,0,0,0,-3.3144,-3.3149,-3.3189,-3.3168,-3.3172,-3.3162,-3.3176,-3.3174,-3.318,-3.3173,-3.3171,-3.3168,-3.3169,-3.3172,-3.3206,-3.3233,-3.3178,-3.318,-3.3296,-3.3299,-3.3302,-3.3352,0,0,0,0,0,0,-3.3142,-3.3149,-3.3169,-3.3168,-3.3173,-3.3221,-3.3178,-3.3175,-3.3184,-3.318,-3.3182,-3.318,-3.3168,-3.3203,-3.3208,-3.3236,-3.3181,-3.3294,-3.3298,-3.3301,-3.3348,-3.3356,-3.3363,0,0,0,0,0,-3.314,-3.3183,-3.317,-3.3175,-3.3198,-3.3222,-3.3225,-3.321,-3.3187,-3.3206,-3.3201,-3.318,-3.323,-3.3207,-3.3213,-3.3241,-3.3292,-3.3296,-3.3301,-3.3344,-3.3355,-3.3363,0,0,0,0,0,0,-3.3187,-3.3182,-3.3168,-3.3212,-3.3218,-3.3215,-3.3239,-3.3222,-3.3234,-3.3229,-3.321,-3.3211,-3.3248,-3.3248,-3.3223,-3.3289,-3.3257,-3.3263,-3.3288,-3.3298,-3.3305,-3.3304,-3.3183,0,0,0,0,0,-3.3202,-3.3223,-3.3218,-3.3257,-3.326,-3.3249,-3.3259,-3.3247,-3.3253,-3.3255,-3.3253,-3.3258,-3.3275,-3.3286,-3.3302,-3.3348,-3.3347,-3.337,-3.3378,-3.3384,-3.3389,-3.3412,-3.3421,-3.3318,-3.3318,-3.3318,0,0,-3.3234,-3.3234,-3.3248,-3.3266,-3.3269,-3.329,-3.3252,-3.3276,-3.3291,-3.3258,-3.329,-3.3289,-3.3294,-3.3334,-3.3351,-3.3335,-3.3417,-3.339,-3.3395,-3.3396,-3.3417,-3.3427,-3.3436,-3.3321,-3.332,-3.332,0,0,-3.3302,-3.3305,-3.3337,-3.3341,-3.3346,-3.3338,-3.3346,-3.3346,-3.3343,-3.3375,-3.335,-3.3368,-3.3398,-3.3402,-3.3408,-3.3476,-3.3457,-3.3482,-3.3523,-3.3545,-3.3553,-3.356,-3.3583,-3.3592,-3.3487,-3.3487,-3.3487,0,-3.3341,-3.3372,-3.3356,-3.3381,-3.3389,-3.336,-3.3392,-3.3396,-3.3406,-3.3412,-3.3393,-3.3429,-3.343,-3.347,-3.3487,-3.3493,-3.35,-3.3481,-3.3553,-3.356,-3.3567,-3.3589,-3.3598,-3.349,-3.349,-3.349,-3.3489,0,-3.3419,-3.3441,-3.3466,-3.3476,-3.3486,-3.3515,-3.3502,-3.3515,-3.3501,-3.3495,-3.3527,-3.3528,-3.3542,-3.3551,-3.3538,-3.3588,-3.3578,-3.3557,-3.3523,-3.358,-3.36,-3.3608,-3.3494,-3.3493,-3.3492,-3.3492,0,0,-3.3518,-3.3517,-3.3526,-3.3529,-3.3532,-3.3548,-3.3575,-3.3589,-3.3599,-3.3607,-3.3628,-3.3653,-3.3633,-3.364,-3.3628,-3.3648,-3.37,-3.3624,-3.3624,-3.3637,-3.3754,-3.3769,-3.3779,-3.3688,-3.3689,-3.3691,-3.3753,0,-3.3584,-3.3629,-3.3614,-3.366,-3.3679,-3.3651,-3.3674,-3.3678,-3.3673,-3.3688,-3.3682,-3.37,-3.3673,-3.3677,-3.3696,-3.369,-3.3723,-3.3686,-3.3706,-3.3707,-3.3705,-3.3789,-3.3805,-3.3864,-3.3761,-3.3762,-3.3763,0,-3.3667,-3.3677,-3.3724,-3.3722,-3.373,-3.3751,-3.3761,-3.3776,-3.378,-3.3774,-3.3782,-3.3765,-3.379,-3.3757,-3.3791,-3.3766,-3.3773,-3.3772,-3.3774,-3.3774,-3.3738,-3.3791,-3.3883,-3.3891,-3.3776,-3.3775,-3.3774,0,-3.3732,-3.3758,-3.3789,-3.3793,-3.3792,-3.3807,-3.3807,-3.3808,-3.3817,-3.3826,-3.3831,-3.3844,-3.385,-3.386,-3.3846,-3.3824,-3.3881,-3.3848,-3.3877,-3.3877,-3.3889,-3.3889,-3.3983,-3.3897,-3.3897,-3.3896,-3.3896,0,-3.3807,-3.3836,-3.3818,-3.3837,-3.3869,-3.3851,-3.3883,-3.3881,-3.3882,-3.3899,-3.3877,-3.3894,-3.3876,-3.3891,-3.3881,-3.3909,-3.3913,-3.3908,-3.3905,-3.391,-3.391,-3.3914,-3.3909,-3.3899,-3.3898,-3.3898,-3.3897,0,-3.3884,-3.3873,-3.3905,-3.3901,-3.3901,-3.3925,-3.3921,-3.3938,-3.3931,-3.3953,-3.3958,-3.3947,-3.3963,-3.3951,-3.3968,-3.396,-3.3998,-3.3989,-3.3996,-3.3994,-3.4023,-3.4019,-3.4121,-3.4133,-3.4041,-3.4042,-3.4042,0,-3.3932,-3.3954,-3.3952,-3.3962,-3.3964,-3.398,-3.3989,-3.3972,-3.3981,-3.3986,-3.4003,-3.4017,-3.4027,-3.4055,-3.4048,-3.406,-3.4051,-3.4086,-3.4053,-3.4056,-3.405,-3.4048,-3.405,-3.4092,-3.4093,-3.4094,-3.4095,0,-3.4018,-3.4011,-3.4024,-3.4034,-3.4044,-3.4052,-3.4058,-3.4068,-3.405,-3.4062,-3.4078,-3.4087,-3.4103,-3.4117,-3.4126,-3.4126,-3.4108,-3.4106,-3.4113,-3.4117,-3.4119,-3.4117,-3.4013,-3.4103,-3.4102,-3.4102,-3.4101,-3.4101,-3.4081,-3.4098,-3.4099,-3.4114,-3.4116,-3.4122,-3.4137,-3.4132,-3.4145,-3.4157,-3.4146,-3.4165,-3.4167,-3.4178,-3.418,-3.4194,-3.418,-3.419,-3.4193,-3.4195,-3.4199,-3.4118,-3.4196,-3.4196,-3.4196,-3.4195,-3.4195,0,-3.4164,-3.4163,-3.4176,-3.4184,-3.4196,-3.4177,-3.4182,-3.4193,-3.421,-3.4213,-3.4223,-3.4241,-3.4255,-3.4249,-3.426,-3.4273,-3.4265,-3.4276,-3.4275,-3.4274,-3.4212,-3.4204,-3.4283,-3.4283,-3.4283,-3.4283,-3.4283,-3.4283,-3.4208,-3.4236,-3.4229,-3.4258,-3.4256,-3.4275,-3.4279,-3.4284,-3.4286,-3.4307,-3.4317,-3.4313,-3.4313,-3.4324,-3.4335,-3.4333,-3.4337,-3.4352,-3.4347,-3.4288,-3.4279,-3.4271,-3.4263,-3.4354,-3.4354,-3.4408,-3.4409,-3.4409]}]]